Change the Weather History Date:

Thursday, October 11, 2012

  Actual Average (KJFX) Record (KJFX)
Temperature  
Mean Temperature 54 °F -  
Max Temperature 68 °F 74 °F 87 °F (1963)
Min Temperature 41 °F 46 °F 33 °F (1964)
Degree Days  
Heating Degree Days 10    
Growing Degree Days 4 (Base 50)    
Moisture  
Dew Point 51 °F    
Average Humidity 83    
Maximum Humidity 100    
Minimum Humidity 58    
Precipitation  
Precipitation 0.00 in - - ()
Sea Level Pressure  
Sea Level Pressure 30.30 in    
Wind  
Wind Speed 0 mph (South)    
Max Wind Speed 6 mph    
Max Gust Speed -    
Visibility 10 miles    
Events      
Averages and records for this station are not official NWS values.
T = Trace of Precipitation, MM = Missing Value Source: NWS Daily Summary

Daily Weather History Graph

Daily Weather History Graph

Search for Another Location

Airport or City:

Trip Planner

Search our weather history database for the weather conditions in past years. The results will help you decide how hot, cold, wet, or windy it might be!

Date:

Astronomy

Oct. 11, 2012 Rise Set
Actual Time 6:52 AM CDT 6:20 PM CDT
Civil Twilight 6:27 AM CDT 6:45 PM CDT
Nautical Twilight 5:58 AM CDT 7:14 PM CDT
Astronomical Twilight 5:29 AM CDT 7:43 PM CDT
Moon 2:41 AM CDT (10/11) 3:48 PM CDT (10/11)
Length of Visible Light 12h 17m
Length of Day
11h 27m
Waning Crescent, 18% of the Moon is Illuminated
Oct 11
Waning Crescent
Oct 15
New
Oct 21
First Quarter
Oct 29
Full
Nov 6
Last Quarter

Hourly Weather History & Observations

Time (CDT) Temp. Dew Point Humidity Pressure Visibility Wind Dir Wind Speed Gust Speed Precip Events Conditions
1:56 AM 45.0 °F 45.0 °F 100% 30.27 in 8.0 mi Calm Calm - N/A   Clear
2:56 AM 43.0 °F 43.0 °F 100% 30.26 in 10.0 mi Calm Calm - N/A   Clear
3:56 AM 41.9 °F 41.9 °F 100% 30.27 in 10.0 mi Calm Calm - N/A   Clear
4:56 AM 43.0 °F 43.0 °F 100% 30.27 in 10.0 mi Calm Calm - N/A   Clear
5:56 AM 43.0 °F 43.0 °F 100% 30.27 in 10.0 mi Calm Calm - N/A   Clear
7:56 AM 46.9 °F 45.0 °F 93% 30.32 in 10.0 mi Calm Calm - N/A   Overcast
8:56 AM 52.9 °F 47.8 °F 83% 30.33 in 10.0 mi Calm Calm - N/A   Mostly Cloudy
9:56 AM 59.9 °F 50.0 °F 70% 30.35 in 10.0 mi Calm Calm - N/A   Scattered Clouds
10:56 AM 61.0 °F 50.9 °F 69% 30.34 in 10.0 mi South 5.8 mph - N/A   Overcast
11:56 AM 63.9 °F 52.9 °F 67% 30.33 in 10.0 mi Calm Calm - N/A   Overcast
12:56 PM 68.0 °F 52.9 °F 58% 30.31 in 10.0 mi Calm Calm - N/A   Mostly Cloudy
1:56 PM 66.9 °F 52.9 °F 61% 30.30 in 10.0 mi Calm Calm - N/A   Overcast
2:56 PM 65.8 °F 54.9 °F 68% 30.30 in 10.0 mi Calm Calm - N/A   Overcast
3:56 PM 66.9 °F 55.9 °F 68% 30.29 in 10.0 mi Calm Calm - N/A   Mostly Cloudy
4:56 PM 65.8 °F 56.8 °F 73% 30.29 in 10.0 mi Calm Calm - N/A   Overcast
6:31 PM 62.6 °F 60.8 °F 94% 30.25 in 10.0 mi Calm Calm - N/A   Overcast
6:56 PM 61.9 °F 59.9 °F 93% 30.27 in 10.0 mi Calm Calm - N/A   Overcast
9:56 PM 61.9 °F 57.9 °F 87% 30.30 in 10.0 mi Calm Calm - N/A   Overcast
10:56 PM 61.9 °F 57.9 °F 87% 30.29 in 10.0 mi Calm Calm - N/A   Overcast